Sparrevohn, AK

8:11 AM AKDT on July 27, 2017 (GMT -0800)
Sparrevohn LRRS

Weather History for PASV - December, 2013

Change the Weather History Date:

Saturday, December 7, 2013

  Actual Average Record
Temperature  
Mean Temperature 39 °F -  
Max Temperature 48 °F 17 °F 48 °F (2013)
Min Temperature 30 °F 4 °F -26 °F (1996)
Degree Days  
Heating Degree Days 26    
Moisture  
Dew Point 35 °F    
Average Humidity 80    
Maximum Humidity 100    
Minimum Humidity 64    
Precipitation  
Precipitation 0.00 in - - ()
Sea Level Pressure  
Sea Level Pressure 30.37 in    
Wind  
Wind Speed 4 mph (WNW)    
Max Wind Speed 7 mph    
Max Gust Speed -    
Visibility 9 miles    
Events Fog    
Averages and records for this station are not official NWS values.
T = Trace of Precipitation, MM = Missing Value Source: NWS Daily Summary

Daily Weather History Graph

Daily Weather History Graph

Search for Another Location

Airport or City:

Trip Planner

Search our weather history database for the weather conditions in past years. The results will help you decide how hot, cold, wet, or windy it might be!

Date:

Astronomy

Dec. 07, 2013 Rise Set
Actual Time 10:19 AM AKST 4:08 PM AKST
Civil Twilight 9:19 AM AKST 5:07 PM AKST
Nautical Twilight 8:21 AM AKST 6:06 PM AKST
Astronomical Twilight 7:28 AM AKST 6:59 PM AKST
Moon 1:00 PM AKST (12/7) 11:20 PM AKST (12/7)
Length of Visible Light 7h 47m
Length of Day
5h 48m
Waxing Crescent, 31% of the Moon is Illuminated
Dec 7
Waxing Crescent
Dec 9
First Quarter
Dec 17
Full
Dec 25
Last Quarter
Jan 1
New

Hourly Weather History & Observations

Time (AKST) Temp. Windchill Dew Point Humidity Pressure Visibility Wind Dir Wind Speed Gust Speed Precip Events Conditions
12:55 AM 47.7 °F - 36.9 °F 66% 30.36 in 10.0 mi Variable 6.9 mph - N/A   Mostly Cloudy
1:55 AM 46.9 °F - 36.5 °F 67% 30.35 in 10.0 mi Variable 5.8 mph - N/A   Mostly Cloudy
2:55 AM 46.9 °F - 36.1 °F 66% 30.35 in 10.0 mi Variable 3.5 mph - N/A   Mostly Cloudy
3:55 AM 46.4 °F 45.2 °F 36.1 °F 67% 30.34 in 10.0 mi Variable 3.5 mph - N/A   Clear
4:55 AM 44.1 °F 42.5 °F 36.0 °F 73% 30.33 in 10.0 mi NW 3.5 mph - N/A   Clear
5:55 AM 45.9 °F 44.6 °F 36.5 °F 70% 30.33 in 10.0 mi NW 3.5 mph - N/A   Clear
6:55 AM 48.0 °F - 36.3 °F 64% 30.32 in 10.0 mi Variable 3.5 mph - N/A   Clear
7:55 AM 45.5 °F - 36.0 °F 69% 30.33 in 10.0 mi NW 1.2 mph - N/A   Clear
8:55 AM 43.9 °F - 35.4 °F 72% 30.34 in 10.0 mi West 2.3 mph - N/A   Clear
9:55 AM 44.6 °F 41.4 °F 35.4 °F 70% 30.33 in 10.0 mi North 5.8 mph - N/A   Clear
10:55 AM 43.5 °F 40.9 °F 35.2 °F 73% 30.33 in 10.0 mi West 4.6 mph - N/A   Clear
11:55 AM 43.0 °F - 35.1 °F 74% 30.35 in 10.0 mi Variable 1.2 mph - N/A   Clear
12:55 PM 41.0 °F - 34.9 °F 79% 30.35 in 10.0 mi Variable 1.2 mph - N/A   Clear
1:55 PM 41.7 °F - 34.9 °F 77% 30.35 in 10.0 mi WSW 2.3 mph - N/A   Clear
2:55 PM 41.5 °F 39.6 °F 35.1 °F 78% 30.36 in 10.0 mi West 3.5 mph - N/A   Clear
3:55 PM 40.3 °F 38.2 °F 35.6 °F 83% 30.36 in 10.0 mi WNW 3.5 mph - N/A   Scattered Clouds
4:55 PM 39.2 °F - 35.4 °F 86% 30.37 in 10.0 mi WNW 1.2 mph - N/A   Clear
5:55 PM 40.1 °F - 35.4 °F 83% 30.37 in 10.0 mi NW 2.3 mph - N/A   Clear
6:55 PM 35.1 °F - 33.4 °F 94% 30.37 in 10.0 mi Variable 2.3 mph - N/A   Clear
7:55 PM 36.7 °F - 34.5 °F 92% 30.38 in 10.0 mi WNW 2.3 mph - N/A   Clear
8:55 PM 35.1 °F - 32.2 °F 89% 30.40 in 10.0 mi Variable 1.2 mph - N/A   Partly Cloudy
9:55 PM 33.1 °F - 32.4 °F 97% 30.40 in 10.0 mi NNE 1.2 mph - N/A   Clear
10:55 PM 32.9 °F - 32.5 °F 99% 30.42 in 10.0 mi Variable 1.2 mph - N/A   Clear
11:14 PM 32.0 °F 27.5 °F 32.0 °F 100% 30.43 in 1.2 mi West 4.6 mph - N/A   Partly Cloudy
11:29 PM - - - N/A% 30.43 in 0.5 mi North 2.3 mph - N/A Fog Fog
11:44 PM 30.2 °F - 30.2 °F 100% 30.44 in 1.8 mi Variable 1.2 mph - N/A Fog Patches of Fog
11:55 PM 30.4 °F - 30.2 °F 99% 30.44 in 0.5 mi ESE 1.2 mph - N/A Fog Fog